Regional Weather Roundup
Issued by NWS

Home | Current Version | Previous Version | Graphics & Text | Print | Product List | Glossary On
Versions: 1 2 3 4 5 6 7 8 9 10 11 12 13 14 15 16 17 18 19 20 21 22 23 24 25 26 27 28 29 30 31 32 33 34 35 36 37 38 39 40 41 42 43 44 45 46 47 48 49 50
000
ASUS43 KTOP 012008
RWRKS

WEATHER ROUNDUP FOR KANSAS
NATIONAL WEATHER SERVICE GOODLAND KS
300 PM CDT SAT AUG 01 2015

NOTE:  "FAIR" INDICATES FEW OR NO CLOUDS BELOW 12,000 FEET WITH NO
SIGNIFICANT WEATHER AND/OR OBSTRUCTIONS TO VISIBILITY.

KSZ001>006-013>018-027>032-041>047-012100-
NORTHWEST KANSAS

CITY           SKY/WX    TMP DP  RH WIND       PRES   REMARKS
GOODLAND       SUNNY     90  50  25 S14       30.07F
HAYS           MOSUNNY   91  63  38 SE10G21   30.03F
HILL CITY      SUNNY     92  63  38 S12       30.04F
RUSSELL        MOSUNNY   93  62  35 S9        30.01F
$$

KSZ061>065-074>080-084>089-012100-
SOUTHWEST KANSAS

CITY           SKY/WX    TMP DP  RH WIND       PRES   REMARKS
DODGE CITY     MOSUNNY   88  62  41 S10       30.05F
ELKHART          N/A     86  68  55 SE12        N/A
GARDEN CITY    SUNNY     88  60  38 S10       30.05F
GREAT BEND     MOSUNNY   91  63  38 SE9       30.02F
LIBERAL        PTSUNNY   86  64  48 S8G16     30.04F
PRATT          MOSUNNY   88  63  42 SE10      30.05F
$$

KSZ066>073-081>083-090>101-012100-
SOUTHEAST KANSAS

CITY           SKY/WX    TMP DP  RH WIND       PRES   REMARKS
CHANUTE        MOSUNNY   92  67  43 MISG      30.02F HX  95
COFFEYVILLE    MOSUNNY   93  69  45 SW6       30.01F HX  98
HUTCHINSON     MOSUNNY   90  70  51 SE12      30.03F HX  95
MEDICINE LODGE   N/A     89  67  47 S8        30.03S
NEWTON         MOSUNNY   90  66  45 SE7       30.06F
PARSONS        MOSUNNY   90  71  53 SW5       30.03F HX  96
WICHITA INTL   MOSUNNY   89  71  55 S9G16     30.02F HX  95
WICHITA JABRA  MOSUNNY   88  71  57 S8        30.03F
WICHITA MCCONL MOSUNNY   88  71  56 S9        30.03F
WINFIELD       MOSUNNY   89  72  56 VRB6      30.03F HX  96
$$

KSZ007>012-019>026-033>040-048>060-102>105-012100-
NORTHEAST KANSAS

CITY           SKY/WX    TMP DP  RH WIND       PRES   REMARKS
CONCORDIA      MOSUNNY   89  69  51 VRB5      30.01F
EMPORIA        MOSUNNY   89  66  46 VRB5      30.02F
LAWRENCE       MOSUNNY   92  70  48 W8        30.00F HX  97
MANHATTAN      MOSUNNY   93  66  40 SW7       30.01F HX  96
MARYSVILLE     MOSUNNY   90  68  48 S7        30.01F
OLATHE IND     MOSUNNY   91  70  49 SW8       30.02F HX  96
OLATHE EXE     MOSUNNY   90  70  51 W5        30.00F HX  95
SALINA         MOSUNNY   93  66  40 SE5       30.01F HX  96
TOPEKA BILLARD MOSUNNY   90  70  51 SW5       30.00F HX  95
TOPEKA FORBES  MOSUNNY   92  67  43 CALM      30.01F HX  95
$$



USA.gov is the U.S. government's official web portal to all federal, state and local government web resources and services.